Zurück zum Katalog

LEMUR-2 KUTAR

AktivWetterSSO
NORAD 67394·PAYLOAD·🇺🇸 United States

Gestartet Jan 11, 2026 von Vandenberg Space Force Base

Loading…

Nächste Überflüge (nächste 24 Stunden)

TLE

AktuellSource: Space-Track

Epoche: Sep 14, 2026, 10:38 UTC

1 67394U 26004AH  26257.44370401  .00003616  00000-0  17066-3 0  9995
2 67394  97.4557 255.4228 0009529  35.4148 324.7718 15.20057216 37322

Verfolge LEMUR-2 KUTAR in Echtzeit mit AllMySat

Download on the App Store